Regional Weather Roundup
Issued by NWS

Home | Current Version | Previous Version | Text Only | Print | Product List | Glossary On
Versions: 1 2 3 4 5 6 7 8 9 10 11 12 13 14 15 16 17 18 19 20 21 22 23 24 25 26 27 28 29 30 31 32 33 34 35 36 37 38 39 40 41 42 43 44 45 46 47 48 49 50
000
ASUS43 KIND 201309
RWRIN

WEATHER ROUNDUP FOR INDIANA
NATIONAL WEATHER SERVICE INDIANAPOLIS IN
900 AM EDT MON OCT 20 2014

NOTE: "FAIR" INDICATES FEW OR NO CLOUDS BELOW 12,000 FEET WITH NO
SIGNIFICANT WEATHER AND/OR OBSTRUCTIONS TO VISIBILITY.

* - STATION DOES NOT REPORT WEATHER SUCH AS PRECIPITATION OR FOG.

+ - STATION NOT QUALITY CONTROLLED BY THE NATIONAL WEATHER SERVICE.
    USE DATA WITH CAUTION...ESPECIALLY DEWPOINT AND RELATIVE
    HUMIDITY OBSERVATIONS.

INZ001>003-010>013-019-020-201400-
NORTHWEST INDIANA

CITY           SKY/WX    TMP DP  RH WIND       PRES   REMARKS
GARY /AIRPORT/ PTCLDY    50  45  81 SW6       29.85R
KNOX *+        PTCLDY    49  43  81 SW5       29.84R
LA PORTE +     RAIN      51  47  87 SW7       29.84R
MICHIGAN CITY+ CLOUDY    46  43  87 SW6       29.84R
MONTICELLO +   PTCLDY    50  46  85 SW8       29.86F
RENSSELAER +   LGT RAIN  50  48  93 SW9       29.85S
VALPARAISO     MOCLDY    48  44  86 SW6       29.84R

$$

LMZ046-743>745-201400-
SOUTHERN LAKE MICHIGAN

STATION/POSITION TIME  TEMP WIND        PRES
                       AIR  DIR/SP/G
                 (UTC) (F)  (DEG/KT/KT) (MB)
MICHIGAN CITY    1300   49  170/ 10/ 12   N/A

$$

INZ004-005-014>016-021>024-201400-
NORTH CENTRAL INDIANA

CITY           SKY/WX    TMP DP  RH WIND       PRES   REMARKS
ELKHART        CLEAR     48  45  87 S7        29.85
GOSHEN         PTCLDY    50  44  80 SW9       29.85R
LOGANSPORT +   MOCLDY    50  43  76 SW10      29.88S
PERU/GRISSOM   MOCLDY    51  49  93 SW10      29.88R
ROCHESTER +    PTCLDY    52  46  82 SW7       29.86S
SOUTH BEND     PTCLDY    50  44  80 SW8       29.85R
WARSAW +       PTCLDY    50  43  76 S3        29.86S

$$

INZ006>009-017-018-025>027-201400-
NORTHEAST INDIANA

CITY           SKY/WX    TMP DP  RH WIND       PRES   REMARKS
ANGOLA *+      SUNNY     48  37  66 SW7       29.86R
AUBURN +       LGT RAIN  50  43  76 S6        29.88R
FORT WAYNE     PTSUNNY   50  44  80 S12       29.88F
HUNTINGTON +   CLOUDY    49  45  84 SW7       29.88S

$$

INZ028-029-035-036-043>045-051>053-201400-
WEST CENTRAL INDIANA

CITY           SKY/WX    TMP DP  RH WIND       PRES   REMARKS
GREENCASTLE +  MOCLDY    50  45  81 S7        29.93F
LAFAYETTE      CLOUDY    51  46  83 SW8       29.88S
TERRE HAUTE    MOCLDY    51  46  83 S10       29.94S

$$

INZ030>032-037>040-046>048-054>057-064-065-201400-
CENTRAL INDIANA

CITY           SKY/WX    TMP DP  RH WIND       PRES   REMARKS
ANDERSON       PTSUNNY   50  43  76 S17       29.93
CP ATTERBURY + PTSUNNY   50  45  81 SW7       29.97S
COLUMBUS       PTSUNNY   48  46  93 S9        29.98S
FRANKFORT +    CLOUDY    51  46  83 S9G16     29.91R
INDIANAPOLIS   PTSUNNY   50  45  83 SW10      29.93F
-EAGLE CREEK   MOCLDY    51  45  79 S9        29.91F
KOKOMO *+      CLOUDY    52  43  71 SW9       29.89S
MARION +       CLOUDY    49  44  82 SW10      29.90S
MT COMFORT *+  MOSUNNY   50  43  76 S10       29.93F
SHELBYVILLE    PTSUNNY   50  44  80 S13       29.95F
ZIONSVILLE +   PTCLDY    50  44  79 S9G17     29.91F

$$

INZ033-034-041-042-049-050-058-059-201400-
EAST CENTRAL INDIANA

CITY           SKY/WX    TMP DP  RH WIND       PRES   REMARKS
MUNCIE         PTSUNNY   51  44  77 S10       29.91F

$$

INZ060-061-067>069-081>083-085>088-201400-
SOUTHWEST INDIANA

CITY           SKY/WX    TMP DP  RH WIND       PRES   REMARKS
EVANSVILLE     MOCLDY    52  47  83 SW8       30.02S
HUNTINGBURG *+ PTSUNNY   48  45  87 SW9       30.02S
WASHINGTON +   CLOUDY    51  48  89 S10       29.98S

$$

INZ062-063-066-070>080-084-089>092-201400-
SOUTH CENTRAL AND SOUTHEAST INDIANA

CITY           SKY/WX    TMP DP  RH WIND       PRES   REMARKS
BLOOMINGTON    CLOUDY    50  45  83 SW8       29.97S

$$




USA.gov is the U.S. government's official web portal to all federal, state and local government web resources and services.